GW4034 Weather Reports


Display with metric or nautical units.
time (UTC)temp
F
wind
direction
speed
MPH
gust
MPH
rain 1hr
in
rain 24hr
in
rain mn
in
humidity
%
barometer
mb
20260905213341 80 283 2.0 2.0 0.00 0.00 0.00 55 1014.6
20260905212836 80 260 1.0 2.0 0.00 0.00 0.00 55 1014.4
20260905212335 80 320 3.0 4.0 0.00 0.00 0.00 54 1014.5
20260905211830 80 28 1.0 3.0 0.00 0.00 0.00 55 1014.4
20260905211326 79 310 1.0 1.0 0.00 0.00 0.00 55 1014.3
20260905210822 79 97 3.0 6.0 0.00 0.00 0.00 55 1014.4
20260905210321 80 15 4.0 4.0 0.00 0.00 0.00 53 1014.2
20260905205815 80 3 2.0 2.0 0.00 0.00 0.00 53 1014.1
20260905205309 81 256 1.0 1.0 0.00 0.00 0.00 55 1014.2
20260905204809 80 107 1.0 2.0 0.00 0.00 0.00 53 1014.3
20260905204305 80 270 4.0 4.0 0.00 0.00 0.00 54 1014.3
20260905203804 80 247 2.0 3.0 0.00 0.00 0.00 55 1014.1
20260905203300 81 322 4.0 4.0 0.00 0.00 0.00 52 1014.3
20260905202755 81 236 0.0 1.0 0.00 0.00 0.00 55 1013.9
20260905202250 80 231 1.0 2.0 0.00 0.00 0.00 56 1014.1
20260905201746 81 322 4.0 7.0 0.00 0.00 0.00 53 1014.0
20260905201241 80 247 3.0 6.0 0.00 0.00 0.00 55 1014.0
20260905200736 80 342 3.0 4.0 0.00 0.00 0.00 55 1014.1
20260905200232 81 332 5.0 7.0 0.00 0.00 0.00 53 1014.0
20260905195729 81 348 2.0 3.0 0.00 0.00 0.00 54 1014.0
20260905195224 81 244 1.0 1.0 0.00 0.00 0.00 55 1014.3
20260905194720 80 152 2.0 2.0 0.00 0.00 0.00 55 1014.2
20260905194219 81 181 0.0 2.0 0.00 0.00 0.00 55 1014.2
20260905193713 80 223 0.0 0.0 0.00 0.00 0.00 57 1014.2
20260905193209 81 312 2.0 3.0 0.00 0.00 0.00 56 1014.1
20260905192704 81 284 3.0 3.0 0.00 0.00 0.00 53 1014.2
20260905192200 81 278 3.0 3.0 0.00 0.00 0.00 54 1014.0
20260905191700 80 36 0.0 1.0 0.00 0.00 0.00 56 1014.3
20260905191158 80 303 0.0 1.0 0.00 0.00 0.00 58 1014.4
20260905190657 80 234 2.0 3.0 0.00 0.00 0.00 56 1014.4
20260905190156 80 191 1.0 1.0 0.00 0.00 0.00 59 1014.4
20260905185655 80 354 2.0 2.0 0.00 0.00 0.00 56 1014.4
20260905185150 80 243 3.0 4.0 0.00 0.00 0.00 57 1014.3
20260905184649 80 71 1.0 2.0 0.00 0.00 0.00 57 1014.4
20260905184148 81 221 0.0 0.0 0.00 0.00 0.00 58 1014.3
20260905183647 79 277 1.0 1.0 0.00 0.00 0.00 60 1014.3
20260905183142 79 220 3.0 6.0 0.00 0.00 0.00 58 1014.4
20260905182642 80 233 4.0 4.0 0.00 0.00 0.00 58 1014.8
20260905182137 80 178 1.0 1.0 0.00 0.00 0.00 58 1014.6
20260905181632 79 320 4.0 6.0 0.00 0.00 0.00 57 1014.7
20260905181131 79 231 2.0 3.0 0.00 0.00 0.00 57 1014.8
20260905180626 80 250 1.0 2.0 0.00 0.00 0.00 56 1014.8
20260905180121 78 281 1.0 2.0 0.00 0.00 0.00 61 1014.7
20260905175620 78 108 1.0 2.0 0.00 0.00 0.00 59 1014.7
20260905175115 76 346 3.0 3.0 0.00 0.00 0.00 61 1014.9
20260905174610 77 210 1.0 1.0 0.00 0.00 0.00 61 1014.8
20260905170430 78 90 4.0 4.0 0.00 0.00 0.00 59 1015.1
20260905165930 78 90 4.0 4.0 0.00 0.00 0.00 59 1015.1
20260905165425 78 90 4.0 4.0 0.00 0.00 0.00 59 1015.1
20260905164921 77 186 1.0 2.0 0.00 0.00 0.00 60 1015.1
20260905164420 77 53 3.0 6.0 0.00 0.00 0.00 61 1015.4
20260905163915 78 38 5.0 7.0 0.00 0.00 0.00 60 1015.3
20260905163412 77 125 4.0 7.0 0.00 0.00 0.00 62 1015.2
20260905162908 77 338 4.0 4.0 0.00 0.00 0.00 61 1015.1
20260905162402 76 345 4.0 6.0 0.00 0.00 0.00 62 1015.1
20260905161857 77 298 3.0 6.0 0.00 0.00 0.00 62 1014.9
20260905161356 77 201 1.0 1.0 0.00 0.00 0.00 61 1014.9
20260905160854 76 143 2.0 2.0 0.00 0.00 0.00 61 1015.1
20260905160348 77 93 1.0 2.0 0.00 0.00 0.00 63 1015.0
20260905155843 76 321 4.0 7.0 0.00 0.00 0.00 61 1014.9
20260905155337 76 318 2.0 2.0 0.00 0.00 0.00 63 1014.9
20260905154836 76 21 6.0 9.0 0.00 0.00 0.00 62 1015.1
20260905154332 75 8 4.0 6.0 0.00 0.00 0.00 62 1014.8
20260905153827 75 330 6.0 9.0 0.00 0.00 0.00 61 1014.9
20260905153323 75 215 2.0 6.0 0.00 0.00 0.00 64 1015.2
20260905152818 74 5 3.0 3.0 0.00 0.00 0.00 66 1015.1
20260905152317 74 17 3.0 6.0 0.00 0.00 0.00 66 1015.0
20260905151812 74 22 2.0 3.0 0.00 0.00 0.00 67 1015.1
20260905151307 74 293 4.0 6.0 0.00 0.00 0.00 67 1015.0
20260905150802 75 292 2.0 3.0 0.00 0.00 0.00 67 1015.1
20260905150301 75 334 4.0 6.0 0.00 0.00 0.00 63 1015.0
20260905145758 76 324 5.0 6.0 0.00 0.00 0.00 64 1015.1
20260905145253 75 321 2.0 2.0 0.00 0.00 0.00 65 1015.1
20260905144752 74 280 2.0 2.0 0.00 0.00 0.00 67 1014.9
20260905144248 74 135 1.0 1.0 0.00 0.00 0.00 66 1014.9
20260905143747 74 80 3.0 6.0 0.00 0.00 0.00 66 1015.1
20260905143247 74 355 2.0 3.0 0.00 0.00 0.00 67 1015.0
20260905142745 75 1 4.0 8.0 0.00 0.00 0.00 65 1014.9
20260905142239 75 317 1.0 3.0 0.00 0.00 0.00 66 1015.1
20260905141736 75 15 3.0 3.0 0.00 0.00 0.00 65 1014.9
20260905141231 76 306 2.0 3.0 0.00 0.00 0.00 66 1015.0
20260905140726 74 253 2.0 2.0 0.00 0.00 0.00 67 1014.9
20260905140221 74 156 3.0 4.0 0.00 0.00 0.00 68 1015.1
20260905135715 74 54 5.0 7.0 0.00 0.00 0.00 68 1014.9
20260905135211 74 23 7.0 9.0 0.00 0.00 0.00 68 1014.9
20260905134710 74 9 2.0 2.0 0.00 0.00 0.00 68 1015.0
20260905134210 75 335 5.0 6.0 0.00 0.00 0.00 68 1015.0
20260905133705 74 198 0.0 0.0 0.00 0.00 0.00 72 1014.8
20260905133200 74 326 5.0 6.0 0.00 0.00 0.00 69 1014.9
20260905132658 75 183 2.0 2.0 0.00 0.00 0.00 69 1014.9
20260905132154 74 252 2.0 2.0 0.00 0.00 0.00 69 1014.9
20260905131643 73 177 2.0 3.0 0.00 0.00 0.00 70 1015.0
20260905131138 73 332 4.0 6.0 0.00 0.00 0.00 70 1015.0
20260905130633 73 220 0.0 1.0 0.00 0.00 0.00 71 1015.1
20260905130133 73 192 2.0 4.0 0.00 0.00 0.00 71 1015.3
20260905125627 72 150 0.0 1.0 0.00 0.00 0.00 72 1015.4
20260905125122 72 12 2.0 2.0 0.00 0.00 0.00 73 1015.4
20260905124618 72 307 2.0 2.0 0.00 0.00 0.00 72 1015.3
20260905124109 72 322 2.0 3.0 0.00 0.00 0.00 72 1015.2
20260905123603 71 357 4.0 6.0 0.00 0.00 0.00 72 1015.3
20260905123100 71 298 4.0 6.0 0.00 0.00 0.00 72 1015.1
20260905122554 71 356 1.0 2.0 0.00 0.00 0.00 74 1015.2
20260905122049 70 305 2.0 2.0 0.00 0.00 0.00 75 1015.4
20260905121543 70 254 2.0 2.0 0.00 0.00 0.00 75 1015.4
20260905121038 70 247 6.0 7.0 0.00 0.00 0.00 74 1015.4
20260905120538 70 48 4.0 6.0 0.00 0.00 0.00 74 1015.4
20260905120033 70 18 3.0 6.0 0.00 0.00 0.00 74 1015.0
20260905115532 69 27 2.0 7.0 0.00 0.00 0.00 75 1015.3
20260905115027 69 31 5.0 6.0 0.00 0.00 0.00 75 1015.2
20260905114526 69 2 2.0 4.0 0.00 0.00 0.00 77 1015.3
20260905114026 69 345 2.0 3.0 0.00 0.00 0.00 77 1015.1
20260905113521 68 185 2.0 2.0 0.00 0.00 0.00 78 1015.1
20260905113016 68 271 1.0 1.0 0.00 0.00 0.00 78 1014.7
20260905112511 68 228 0.0 0.0 0.00 0.00 0.00 78 1014.9
20260905112006 68 230 0.0 1.0 0.00 0.00 0.00 79 1014.8
20260905111501 67 219 0.0 0.0 0.00 0.00 0.00 80 1014.9
20260905111000 66 227 0.0 0.0 0.00 0.00 0.00 81 1014.7
20260905110455 66 244 2.0 2.0 0.00 0.00 0.00 81 1014.7
20260905105954 65 348 2.0 2.0 0.00 0.00 0.00 82 1014.5
20260905105449 65 259 1.0 1.0 0.00 0.00 0.00 82 1014.6
20260905104948 65 240 0.0 0.0 0.00 0.00 0.00 82 1014.4
20260905104444 65 332 2.0 3.0 0.00 0.00 0.00 83 1014.5
20260905103939 64 295 2.0 2.0 0.00 0.00 0.00 84 1014.4
20260905103435 64 234 0.0 0.0 0.00 0.00 0.00 84 1014.3
20260905102931 64 231 0.0 0.0 0.00 0.00 0.00 84 1014.5
20260905102427 64 244 0.0 0.0 0.00 0.00 0.00 84 1014.6
20260905101922 64 235 0.0 0.0 0.00 0.00 0.00 85 1014.5
20260905101420 64 237 0.0 0.0 0.00 0.00 0.00 85 1014.5
20260905100915 64 249 1.0 1.0 0.00 0.00 0.00 85 1014.3
20260905100411 64 228 0.0 0.0 0.00 0.00 0.00 85 1014.2
20260905095909 64 232 0.0 0.0 0.00 0.00 0.00 85 1014.2
20260905095358 64 237 0.0 0.0 0.00 0.00 0.00 85 1014.3
20260905094853 64 233 0.0 0.0 0.00 0.00 0.00 85 1014.3
20260905094349 65 221 0.0 0.0 0.00 0.00 0.00 84 1014.1
20260905093847 65 225 0.0 0.0 0.00 0.00 0.00 84 1014.2
20260905093343 65 203 0.0 0.0 0.00 0.00 0.00 83 1014.3
20260905092839 66 199 0.0 0.0 0.00 0.00 0.00 82 1014.4
20260905092339 66 243 0.0 1.0 0.00 0.00 0.00 81 1014.1
20260905091833 66 229 0.0 0.0 0.00 0.00 0.00 81 1014.3
20260905091328 67 243 0.0 1.0 0.00 0.00 0.00 80 1014.1
20260905090826 67 227 0.0 0.0 0.00 0.00 0.00 80 1014.3
20260905090323 67 246 0.0 1.0 0.00 0.00 0.00 79 1014.2
20260905085822 67 244 0.0 0.0 0.00 0.00 0.00 79 1014.2
20260905085322 67 301 2.0 3.0 0.00 0.00 0.00 79 1014.3
20260905084812 67 12 3.0 3.0 0.00 0.00 0.00 79 1014.1
20260905084312 67 235 0.0 1.0 0.00 0.00 0.00 80 1014.2
20260905083807 68 274 0.0 0.0 0.00 0.00 0.00 80 1014.0
20260905083303 68 229 1.0 2.0 0.00 0.00 0.00 80 1014.1
20260905082757 68 230 0.0 0.0 0.00 0.00 0.00 80 1014.1
20260905082253 68 243 0.0 0.0 0.00 0.00 0.00 79 1014.2
20260905081748 69 259 0.0 0.0 0.00 0.00 0.00 79 1014.2
20260905081243 69 265 1.0 1.0 0.00 0.00 0.00 79 1014.3
20260905080742 69 246 0.0 1.0 0.00 0.00 0.00 79 1014.4
20260905080237 69 234 0.0 0.0 0.00 0.00 0.00 79 1014.4
20260905075736 69 242 1.0 1.0 0.00 0.00 0.00 78 1014.4
20260905075235 69 282 1.0 2.0 0.00 0.00 0.00 78 1014.3
20260905074734 69 258 1.0 1.0 0.00 0.00 0.00 78 1014.2
20260905074230 69 220 0.0 0.0 0.00 0.00 0.00 78 1014.3
20260905073726 69 223 0.0 0.0 0.00 0.00 0.00 78 1014.1
20260905073221 69 241 0.0 0.0 0.00 0.00 0.00 78 1014.3
20260905072720 69 235 0.0 0.0 0.00 0.00 0.00 78 1014.3
20260905072216 69 235 0.0 0.0 0.00 0.00 0.00 78 1014.4
20260905071712 69 251 1.0 2.0 0.00 0.00 0.00 78 1014.3
20260905071208 69 228 0.0 0.0 0.00 0.00 0.00 79 1014.4
20260905070703 69 236 0.0 0.0 0.00 0.00 0.00 78 1014.3
20260905070159 69 225 0.0 0.0 0.00 0.00 0.00 78 1014.2
20260905065657 69 213 0.0 0.0 0.00 0.00 0.00 77 1014.5
20260905065152 70 218 0.0 0.0 0.00 0.00 0.00 77 1014.4
20260905064647 70 334 1.0 2.0 0.00 0.00 0.00 76 1014.3
20260905064143 70 241 0.0 0.0 0.00 0.00 0.00 76 1014.7
20260905063641 70 308 1.0 1.0 0.00 0.00 0.00 75 1014.6
20260905063137 70 7 3.0 4.0 0.00 0.00 0.00 75 1014.6
20260905062633 70 305 1.0 1.0 0.00 0.00 0.00 75 1014.5
20260905062132 70 324 1.0 1.0 0.00 0.00 0.00 76 1014.8
20260905061626 69 235 0.0 1.0 0.00 0.00 0.00 77 1014.5
20260905061127 69 299 1.0 1.0 0.00 0.00 0.00 79 1014.6
20260905060622 69 234 0.0 0.0 0.00 0.00 0.00 80 1014.6
20260905060119 69 222 0.0 0.0 0.00 0.00 0.00 80 1014.7
20260905055617 69 212 0.0 0.0 0.00 0.00 0.00 80 1014.6
20260905055112 69 213 0.0 0.0 0.00 0.00 0.00 80 1014.8
20260905054608 69 226 0.0 0.0 0.00 0.00 0.00 80 1014.8
20260905054103 69 226 0.0 0.0 0.00 0.00 0.00 80 1015.0
20260905053602 69 221 0.0 0.0 0.00 0.00 0.00 80 1014.8
20260905053057 69 236 0.0 0.0 0.00 0.00 0.00 81 1015.0
20260905052556 69 233 0.0 0.0 0.00 0.00 0.00 80 1014.8
20260905052046 69 224 0.0 0.0 0.00 0.00 0.00 80 1014.8
20260905051542 69 236 0.0 0.0 0.00 0.00 0.00 80 1015.1
20260905051038 70 224 0.0 0.0 0.00 0.00 0.00 80 1015.0
20260905050534 70 235 0.0 0.0 0.00 0.00 0.00 79 1015.0
20260905050031 70 205 0.0 0.0 0.00 0.00 0.00 79 1015.0
20260905045525 70 204 0.0 0.0 0.00 0.00 0.00 78 1015.2
20260905045020 70 204 0.0 0.0 0.00 0.00 0.00 78 1015.2
20260905044514 70 220 0.0 0.0 0.00 0.00 0.00 77 1015.4
20260905044009 70 221 0.0 0.0 0.00 0.00 0.00 77 1015.1
20260905043508 71 223 0.0 0.0 0.00 0.00 0.00 77 1015.4
20260905043003 71 223 0.0 0.0 0.00 0.00 0.00 76 1015.3
20260905042502 71 226 0.0 0.0 0.00 0.00 0.00 75 1015.2
20260905041952 72 224 0.0 0.0 0.00 0.00 0.00 75 1015.4
20260905041448 72 231 0.0 0.0 0.00 0.00 0.00 74 1015.3
20260905040942 72 274 1.0 1.0 0.00 0.00 0.00 74 1015.2
20260905040436 72 284 2.0 3.0 0.00 0.00 0.00 74 1015.3
20260905035936 72 26 2.0 3.0 0.00 0.04 0.04 74 1015.3
20260905035431 72 308 2.0 3.0 0.00 0.04 0.04 75 1015.1
20260905034928 71 6 1.0 2.0 0.00 0.04 0.04 76 1015.3
20260905034423 71 234 0.0 0.0 0.00 0.04 0.04 77 1015.4
20260905033922 72 271 0.0 0.0 0.00 0.04 0.04 76 1015.4
20260905033417 72 281 1.0 1.0 0.00 0.04 0.04 76 1015.4
20260905032917 72 15 1.0 1.0 0.00 0.04 0.04 76 1015.4
20260905032412 72 242 0.0 0.0 0.00 0.04 0.04 76 1015.4
20260905031906 71 327 1.0 1.0 0.00 0.04 0.04 76 1015.4
20260905031357 72 253 0.0 1.0 0.00 0.04 0.04 76 1015.5
20260905030852 71 255 0.0 1.0 0.00 0.04 0.04 77 1015.3
20260905030348 71 303 1.0 2.0 0.00 0.04 0.04 77 1015.4
20260905025847 71 258 1.0 2.0 0.00 0.04 0.04 78 1015.2
20260905025342 71 234 0.0 0.0 0.00 0.04 0.04 78 1015.3
20260905024838 71 253 0.0 1.0 0.00 0.04 0.04 78 1015.3
20260905024333 71 234 0.0 0.0 0.00 0.04 0.04 78 1015.0
20260905023829 71 229 1.0 1.0 0.00 0.04 0.04 78 1015.2
20260905023324 70 234 0.0 0.0 0.00 0.04 0.04 78 1015.1
20260905022822 70 241 0.0 1.0 0.00 0.04 0.04 79 1015.2
20260905022319 70 233 0.0 0.0 0.00 0.04 0.04 79 1015.2
20260905021818 70 237 0.0 0.0 0.00 0.04 0.04 79 1015.2
20260905021313 70 233 0.0 0.0 0.00 0.04 0.04 79 1015.2
20260905020808 70 260 0.0 1.0 0.00 0.04 0.04 79 1015.3
20260905020303 70 307 1.0 2.0 0.00 0.04 0.04 80 1015.4
20260905015801 70 239 0.0 1.0 0.00 0.04 0.04 80 1015.4
20260905015257 71 257 1.0 1.0 0.00 0.04 0.04 80 1015.3
20260905014755 71 271 0.0 1.0 0.00 0.04 0.04 79 1015.2
20260905014251 71 241 0.0 1.0 0.00 0.04 0.04 79 1015.2
20260905013746 71 233 0.0 0.0 0.00 0.04 0.04 79 1015.4
20260905013237 71 225 0.0 0.0 0.00 0.04 0.04 77 1015.3
20260905012732 72 219 0.0 0.0 0.00 0.04 0.04 76 1015.4
20260905012227 72 221 0.0 0.0 0.00 0.04 0.04 76 1015.4
20260905011725 72 222 0.0 0.0 0.00 0.04 0.04 74 1015.2
20260905011220 73 223 0.0 0.0 0.00 0.04 0.04 74 1015.4
20260905010720 73 228 0.0 0.0 0.00 0.04 0.04 73 1015.5
20260905010215 73 245 0.0 0.0 0.00 0.04 0.04 73 1015.5
20260905005711 73 230 0.0 1.0 0.00 0.04 0.04 73 1015.5
20260905005206 73 239 0.0 0.0 0.00 0.04 0.04 74 1015.5
20260905004701 73 235 0.0 0.0 0.00 0.04 0.04 74 1015.2
20260905004156 73 231 0.0 0.0 0.00 0.04 0.04 75 1015.3
20260905003651 73 244 0.0 0.0 0.00 0.04 0.04 74 1015.4
20260905003147 73 233 0.0 0.0 0.00 0.04 0.04 74 1015.1
20260905002642 74 227 0.0 0.0 0.00 0.04 0.04 73 1015.1
20260905002137 74 224 0.0 0.0 0.00 0.04 0.04 73 1015.3
20260905001633 73 224 0.0 0.0 0.00 0.04 0.04 75 1015.2
20260905001132 73 225 0.0 0.0 0.00 0.04 0.04 75 1015.2
20260905000627 74 222 0.0 0.0 0.00 0.04 0.04 74 1014.9
20260905000123 74 223 0.0 0.0 0.00 0.04 0.04 74 1015.0
20260904235623 74 224 0.0 0.0 0.00 0.04 0.04 73 1015.2
20260904235122 75 228 0.0 0.0 0.00 0.04 0.04 73 1015.0
20260904234617 75 223 0.0 0.0 0.00 0.04 0.04 71 1015.1
20260904234113 76 222 0.0 0.0 0.00 0.04 0.04 70 1015.1
20260904233609 76 223 0.0 0.0 0.00 0.04 0.04 69 1015.1
20260904233104 77 221 0.0 0.0 0.00 0.04 0.04 68 1014.9
20260904232600 78 227 0.0 0.0 0.00 0.04 0.04 66 1015.1
20260904232056 78 224 0.0 0.0 0.00 0.04 0.04 65 1014.9
20260904231552 78 226 0.0 0.0 0.00 0.04 0.04 64 1014.8
20260904231047 79 223 0.0 0.0 0.00 0.04 0.04 63 1014.7
20260904230546 79 268 1.0 2.0 0.00 0.04 0.04 63 1014.8
20260904230042 79 249 1.0 1.0 0.00 0.04 0.04 63 1014.8
20260904225539 80 226 1.0 2.0 0.00 0.04 0.04 63 1014.7
20260904225039 80 220 0.0 0.0 0.00 0.04 0.04 64 1014.8
20260904224534 80 257 3.0 3.0 0.00 0.04 0.04 62 1015.0
20260904224034 80 261 1.0 2.0 0.00 0.04 0.04 62 1014.9
20260904223533 81 240 0.0 0.0 0.00 0.04 0.04 61 1014.8
20260904223029 83 241 1.0 1.0 0.00 0.04 0.04 59 1014.9
20260904222524 83 249 2.0 2.0 0.00 0.04 0.04 59 1014.9
20260904222019 83 276 0.0 1.0 0.00 0.04 0.04 59 1014.9
20260904221514 83 295 0.0 1.0 0.00 0.04 0.04 58 1014.7
20260904221009 82 233 1.0 1.0 0.00 0.04 0.04 59 1015.0
20260904220509 83 235 1.0 1.0 0.00 0.04 0.04 58 1014.6
20260904220005 83 0 3.0 4.0 0.00 0.04 0.04 57 1014.7
20260904215459 83 187 2.0 3.0 0.00 0.04 0.04 58 1014.6
20260904214954 83 275 2.0 3.0 0.00 0.04 0.04 58 1014.5
20260904214450 83 265 1.0 2.0 0.00 0.04 0.04 58 1014.7
20260904213944 84 244 1.0 1.0 0.00 0.04 0.04 58 1014.7